Regional Weather Roundup
Issued by NWS Midland/Odessa, TX

Skip options and go directly to product.
Home | Oldest Version | Next Version | Current Version | All | Text Only | Save Text | Print | Product List | Glossary On

Skip product version selection by date and time.   
339
ASUS44 KMAF 300701
RWRMAF
MIDLAND AREA WEATHER ROUNDUP
NATIONAL WEATHER SERVICE MIDLAND TX
200 AM CDT MON MAY 30 2016

...IN SOUTHWEST TEXAS AND SOUTHEAST NEW MEXICO...

CITY           SKY/WX    TMP DP  RH WIND       PRES   REMARKS
ALPINE         CLOUDY    67  59  77 W7        30.16F
ANDREWS        FAIR      58  54  85 E12       30.12S
ARTESIA        CLOUDY    63  55  77 SE8       30.12R
BIG SPRING     CLOUDY    60  56  87 NE20      30.11F
CARLSBAD       CLOUDY    61  54  77 E10       30.09S
DRYDEN           N/A     72  68  87 N3        29.99S
FORT STOCKTON  NOT AVBL
GUAD PASS      NOT AVBL
HOBBS          CLEAR     57  57 100 E13       30.12F
MARFA          CLEAR     60  57  89 NW7       30.16R
MIDLAND AIRPK  MOCLDY    63  56  80 NE14G20   30.12S
MIDLAND INTL   CLEAR     62  55  77 E18       30.10S
ODESSA         CLEAR     62  55  77 E17       30.11S
PECOS          PTCLDY    71  64  77 NE10      30.00R
PRESIDIO       FAIR      79  53  40 N3        30.01R
SEMINOLE       CLEAR     60  52  74 E9        30.12F
SNYDER           N/A     59  58  96 NE10      30.07F
WINK           NOT AVBL
$$
...OTHER STATIONS IN TEXAS...

CITY           SKY/WX    TMP DP  RH WIND       PRES   REMARKS
ABILENE        CLOUDY    62  62 100 N10       30.05R
AMARILLO       CLEAR     51  49  92 SW8       30.07F
AUSTIN         CLEAR     73  71  93 SE7       30.01F
BROWNSVILLE    CLEAR     78  75  90 SE6       29.97F
CORPUS CHRISTI PTCLDY    79  75  87 SE8       29.97F
DALLAS FTW     LGT RAIN  72  63  73 NE3       30.01S
DEL RIO        CLOUDY    77  71  82 SE8       29.93F
EL PASO        PTCLDY    77  37  23 S10       30.03R
HOUSTON INT    PTCLDY    70  70 100 CALM      30.02F
LUBBOCK        PTCLDY    57  54  89 SE13      30.07F
SAN ANGELO     TSTM      64  63  96 N21       30.07R FOG
SAN ANTONIO    CLOUDY    75  71  87 SE14      30.01S
WACO           CLOUDY    76  70  82 S9        30.02S
WICHITA FALLS  NOT AVBL
$$
...OTHER LOCATIONS IN NEW MEXICO...

CITY           SKY/WX    TMP DP  RH WIND       PRES   REMARKS
ALAMAGORDO     PTCLDY    73  32  21 S7        30.04S
ALBUQUERQUE    CLOUDY    64  16  15 SE9       30.08R
CANNON AFB     PTCLDY    50  50 100 S5        30.14F
CLOVIS         CLOUDY    52  46  82 S3        30.13F
HOLLOMAN AFB   MOCLDY    76  34  21 SE9       30.01F
ROSWELL        CLOUDY    62  50  64 SE7       30.13S
RUIDOSO          N/A     55  48  76 SE9       30.28S
SANTA FE       CLEAR     60  43  53 SE23G29   30.14R
TRUTH OR CONSE CLEAR     71  32  23 S8        30.05F
TUCUMCARI      CLEAR     52  50  93 W3        30.15S
$$

USA.gov is the U.S. government's official web portal to all federal, state and local government web resources and services.